RH
14 24 25 18 14 13 14 15 22 18 14 14 14 16 19 18 16 18 30 31 37 39 39 40 48 43 46 58 68 72 66 53 53 55 53 50 46 45 50 52 52 52 51 51
18 24 16 14 14 15 14 20 26 19 15 14 15 17 22 21 23 25 31 37 39 43 44 46 48 53 55 52 52 55 55 51 45 45 45 46 46 47 47 48 52 52 56 59
26 17 13 15 24 24 24 29 27 24 20 17 18 23 25 23 23 25 28 32 33 37 42 43 49 51 50 50 50 49 49 49 47 45 47 47 45 44 48 49 54 64 64 61
21 16 19 19 25 24 33 28 26 24 26 31 20 38 28 27 30 30 32 31 35 42 46 48 46 43 44 49 50 50 46 44 46 45 45 48 56 60 64 68 63 56 54 57
22 26 29 29 25 22 30 23 26 25 31 30 28 38 30 29 36 35 32 31 34 37 41 46 46 46 50 49 48 47 52 52 54 53 54 62 65 59 60 63 64 64 64 63
22 21 24 25 22 20 22 29 32 31 37 60 37 37 50 42 35 36 34 33 35 37 38 40 43 47 47 50 51 52 54 57 57 58 61 60 61 64 67 67 68 68 67 60
26 27 23 21 29 25 27 42 71 71 77 73 47 40 50 38 30 33 40 38 38 38 40 42 46 50 50 50 52 55 56 55 57 56 63 66 67 70 72 73 72 72 56 54
42 46 29 26 28 30 34 38 75 64 82 68 28 45 46 34 30 32 33 33 36 37 38 39 38 40 44 48 49 50 52 56 61 63 62 67 71 71 73 73 69 59 58 71
45 38 26 24 24 26 34 42 25 60 61 79 46 41 34 31 31 29 28 32 37 38 39 39 42 42 45 48 52 54 57 60 63 65 67 69 70 70 68 64 67 68 74 76
29 40 24 22 24 25 29 24 55 66 63 54 42 51 61 42 48 38 29 32 33 38 43 44 47 50 51 54 56 58 60 61 65 70 69 68 66 65 64 67 68 70 70 66
38 43 33 24 32 35 38 40 39 40 64 74 78 50 33 44 45 42 36 36 41 43 45 46 49 51 52 54 58 61 64 67 67 64 65 65 66 63 62 60 62 64 52 41
31 46 57 38 26 23 25 34 41 75 57 79 82 60 30 44 37 37 39 42 42 42 44 47 49 53 58 56 60 58 56 55 58 57 60 65 64 62 59 58 62 58 48 66
43 44 73 53 43 34 24 28 34 61 70 58 74 63 31 31 38 37 36 41 43 45 52 58 60 58 59 61 55 50 50 51 50 50 63 65 63 76 85 77 65 62 66 67
47 38 50 66 38 31 30 31 27 53 85 72 72 51 36 49 48 50 48 48 52 57 59 59 52 63 63 56 50 50 49 45 42 48 57 56 61 76 84 78 80 74 78 69
47 60 51 45 37 34 34 37 36 36 40 59 51 48 42 57 54 53 53 54 59 62 61 61 62 61 53 52 48 40 37 37 40 48 47 57 67 83 82 83 90 94 76 59
52 79 55 53 50 51 51 48 43 38 36 35 37 41 48 49 51 52 59 65 67 64 65 55 57 55 52 44 41 38 39 38 38 38 39 48 62 70 76 90 98 83 67 55
68 74 84 86 70 80 73 48 40 35 34 33 46 47 57 60 60 68 70 68 67 64 59 52 49 47 37 38 38 38 37 37 37 38 39 58 65 60 79 96 75 86 78 60
71 83 96 90 78 63 54 35 38 44 42 42 55 62 61 58 68 70 69 66 60 56 46 43 37 35 34 33 34 37 37 35 36 37 42 51 56 62 72 71 98 77 75 60
63 89 94 96 91 60 49 40 45 50 55 62 69 66 65 60 62 66 62 54 51 44 39 35 33 30 30 31 35 35 35 37 40 46 52 56 63 72 97 99 93 94 70 58
78 81 87 98 92 81 59 43 38 41 80 64 68 75 73 64 89 78 62 50 45 39 36 32 28 29 30 32 34 35 37 43 48 53 62 65 66 92 82 84 80 69 61 66
97 91 92 92 90 80 62 41 40 67 69 71 71 73 73 80 74 71 52 44 41 37 35 30 30 32 34 35 34 41 45 49 57 61 67 75 70 84 92 92 87 70 65 64
86 95 94 86 86 94 42 44 58 62 68 70 71 73 79 77 69 62 45 42 38 36 32 32 34 35 37 38 43 49 54 60 64 68 74 78 78 84 88 81 68 64 65 68
73 81 90 77 80 48 40 41 47 52 62 74 75 73 70 68 70 48 44 40 36 35 36 37 39 41 40 44 51 57 63 68 70 68 78 79 82 76 74 72 71 71 72 76
46 50 78 72 58 49 42 52 56 63 71 77 70 64 73 68 51 44 39 36 37 38 40 43 42 44 46 53 58 64 72 72 71 73 78 82 82 84 83 78 73 77 80 78
56 50 54 69 53 49 65 64 77 80 80 84 76 77 53 48 44 38 36 38 38 39 40 43 47 52 56 60 62 69 73 81 83 84 71 64 77 80 78 86 83 86 84 81
54 60 78 81 57 59 82 82 82 80 86 86 70 52 49 43 35 36 37 38 39 43 46 48 50 51 64 70 72 70 84 86 94 88 73 66 69 84 100 98 93 86 84 85
Wind_Speed
9 5 4 3 2 3 4 5 10 4 5 2 3 3 6 20 10 21 27 33 33 34 24 23 23 17 14 19 20 22 22 19 14 14 10 10 9 6 3 5 8 10 15 19
3 4 3 4 2 3 4 6 5 4 4 3 2 1 7 16 14 25 31 33 31 28 24 20 14 18 15 10 6 6 6 11 8 8 8 8 6 4 5 8 10 17 19 24
7 2 3 3 8 9 7 5 5 4 6 4 2 2 8 8 25 32 31 29 25 23 21 16 14 13 10 9 4 2 1 1 4 3 4 5 5 9 12 15 20 20 21 26
6 1 4 5 7 6 4 5 5 5 4 3 5 1 4 10 13 20 28 30 30 27 22 16 12 10 8 8 6 8 10 11 10 9 11 15 14 13 15 18 18 20 23 22
3 6 8 8 4 5 2 0 3 3 4 3 6 4 3 12 12 10 20 22 21 19 17 14 8 7 7 7 8 7 7 13 18 17 18 14 10 11 7 12 17 19 20 22
4 10 4 4 4 2 5 4 5 3 2 2 7 4 2 4 12 6 18 21 17 14 9 4 5 3 5 6 9 9 3 3 11 11 9 12 13 13 14 20 23 22 25 28
5 4 3 5 3 1 4 6 3 4 4 3 6 6 2 4 9 14 18 22 16 13 13 13 12 8 2 5 5 4 7 13 15 11 11 12 15 17 19 21 23 24 24 23
5 3 6 7 5 2 5 4 4 1 1 4 5 4 0 10 24 24 19 13 13 12 11 7 2 1 2 4 4 7 10 11 12 14 16 15 16 18 19 20 23 20 20 18
4 3 3 6 4 3 5 5 1 5 1 3 2 5 5 8 9 14 10 10 14 12 12 10 13 8 3 5 8 9 10 10 14 15 16 17 17 19 18 20 15 17 16 19
5 4 3 3 2 5 5 2 5 4 1 2 2 4 3 3 5 3 7 13 16 20 19 14 12 10 9 9 13 17 18 18 16 17 19 21 21 17 17 13 14 16 21 29
5 4 3 2 5 4 4 3 4 2 4 4 1 3 3 6 5 4 15 16 18 15 15 13 12 13 14 16 17 17 19 20 22 22 24 26 24 19 19 23 26 26 31 27
3 4 3 3 2 2 1 3 4 4 3 1 4 5 5 9 16 16 15 16 13 13 10 10 11 12 16 21 23 25 24 18 15 22 26 20 24 25 26 27 25 28 25 19
3 2 3 4 4 5 1 3 5 6 3 4 4 5 5 5 9 4 7 14 13 11 11 8 10 18 19 22 25 19 19 18 24 28 25 22 19 25 25 27 26 19 20 21
3 3 5 5 3 0 2 5 4 6 3 4 6 6 11 5 3 13 16 15 16 14 10 14 20 19 19 18 18 19 23 23 27 29 28 35 37 26 20 19 15 16 22 19
3 3 4 4 5 4 4 6 7 4 5 5 7 6 5 10 8 13 11 12 12 12 15 18 19 17 16 18 19 17 23 24 25 28 32 34 26 20 23 34 25 21 16 15
4 1 2 2 7 7 4 7 7 7 6 4 4 4 13 16 16 14 14 13 13 14 16 20 15 16 18 19 21 24 19 19 25 32 33 33 28 29 33 26 19 13 13 14
3 4 3 2 5 5 4 3 5 3 3 2 2 1 12 11 15 16 15 12 11 13 16 16 16 18 21 19 16 15 21 26 29 29 33 27 33 37 30 20 13 15 15 13
4 3 3 2 4 2 4 3 4 5 4 6 10 10 14 14 16 13 8 8 11 14 15 17 17 17 19 15 19 22 26 30 30 32 30 33 37 37 29 19 17 10 12 18
5 4 3 3 1 6 5 2 3 4 3 7 8 9 10 8 8 11 9 11 8 11 13 16 16 18 18 20 23 28 31 30 26 25 29 34 35 28 24 19 15 17 16 17
7 6 4 2 4 6 5 4 6 2 3 4 9 8 7 5 2 3 12 10 7 11 14 17 18 19 21 22 28 30 29 23 22 26 29 33 32 25 25 16 8 12 15 12
3 3 4 4 3 7 8 5 5 3 6 7 7 5 2 2 5 7 8 6 11 13 15 16 19 20 21 27 32 25 19 24 25 29 32 29 27 22 17 10 11 11 15 16
7 6 4 3 3 7 11 6 7 6 5 11 8 2 4 5 5 5 6 11 13 15 16 18 20 21 26 25 20 22 23 24 27 31 32 27 22 16 12 13 13 13 14 17
2 7 6 9 6 9 14 13 14 8 5 10 2 0 3 2 4 4 10 12 14 16 19 20 21 26 22 21 22 23 26 29 33 35 24 21 14 13 11 10 10 15 18 19
3 13 3 4 7 11 10 10 10 11 11 8 2 2 2 6 5 8 9 13 14 16 16 19 23 21 22 24 23 26 29 35 34 27 25 16 12 11 12 15 18 16 17 20
6 2 1 3 3 1 6 10 15 14 8 4 4 4 3 2 4 9 10 13 16 18 22 22 22 24 26 28 32 33 30 28 28 24 18 13 14 15 13 14 12 16 19 22
6 5 3 5 4 6 11 15 11 8 9 7 7 5 2 5 6 9 13 16 19 21 24 26 27 29 29 31 34 29 24 26 25 25 16 16 12 13 11 12 15 16 18 16
Wind_Direction
233 67 120 115 28 308 357 30 111 98 77 63 265 74 94 59 84 73 90 95 93 90 93 93 87 102 102 95 117 138 142 151 154 181 199 212 186 190 262 289 291 301 303 304
358 100 19 289 112 356 342 29 42 111 127 106 1 56 103 75 63 92 96 93 92 85 79 79 82 82 87 104 109 118 137 174 178 192 210 223 251 284 305 301 299 302 298 299
106 132 277 8 50 21 46 77 24 33 343 337 330 101 98 80 81 80 89 94 90 93 90 86 88 94 94 84 69 6 35 185 234 228 257 267 259 272 268 273 296 305 298 302
91 13 332 58 55 32 63 19 4 332 12 229 118 24 130 116 91 84 80 83 92 94 92 86 80 81 76 82 62 34 3 355 356 329 312 309 312 315 312 297 294 297 305 304
73 54 33 57 46 24 140 273 271 311 306 356 312 73 276 115 100 99 97 94 89 91 91 84 53 36 45 47 27 33 24 353 348 337 327 325 316 305 287 282 295 298 295 299
93 83 45 358 302 240 280 287 257 248 170 25 297 133 281 117 135 112 108 106 107 107 105 102 115 86 13 357 7 13 66 3 8 343 306 292 293 291 283 291 299 301 308 313
104 89 154 350 312 9 8 32 2 2 18 220 316 57 235 176 140 140 118 106 107 114 125 131 145 148 99 353 6 354 306 306 296 292 295 288 286 287 289 293 302 315 320 325
129 19 2 347 64 6 317 81 125 77 59 282 326 86 45 81 88 101 115 137 156 173 170 158 164 262 41 48 355 317 311 309 291 286 287 295 298 297 298 305 319 327 322 319
98 97 60 46 343 32 350 45 189 107 337 50 139 77 58 103 107 124 132 149 164 180 139 112 87 84 53 348 342 339 325 300 293 289 288 300 311 314 322 327 324 317 310 313
13 100 351 141 326 6 107 218 42 2 90 303 2 125 210 188 110 56 65 88 82 84 92 75 67 56 31 0 340 327 323 316 308 311 316 313 314 323 318 302 303 303 309 316
16 83 260 30 35 46 14 15 26 83 117 153 356 288 131 95 113 140 99 92 90 69 46 33 19 5 352 342 341 332 319 317 324 321 319 313 308 299 294 295 292 296 310 314
17 127 70 123 93 11 313 81 87 107 305 46 142 283 95 96 69 56 71 82 72 63 50 25 0 341 338 331 328 327 323 335 327 321 316 313 314 299 293 288 288 299 313 321
352 38 55 9 4 321 318 127 119 115 102 172 126 260 80 85 18 44 102 88 77 57 53 31 356 348 337 333 335 348 340 333 324 321 314 306 287 283 299 300 300 291 305 297
35 84 143 173 182 141 343 332 334 140 114 211 206 242 275 119 80 73 67 56 65 60 32 359 349 352 346 344 346 339 334 331 325 313 312 313 314 298 293 284 284 299 318 286
75 99 39 343 330 332 346 339 332 313 246 170 248 229 106 115 106 74 52 53 53 28 360 357 348 349 351 341 339 336 332 333 337 333 334 324 319 293 287 296 268 310 292 297
28 188 83 301 22 16 307 292 270 260 284 303 32 74 114 93 65 53 66 68 41 9 354 350 356 347 340 334 328 331 332 333 334 339 342 336 315 310 310 293 306 300 279 290
81 118 77 263 350 354 7 263 316 319 354 303 305 86 86 59 58 76 68 43 16 357 357 357 351 340 332 333 335 334 332 333 338 337 334 331 333 334 328 309 319 270 289 304
119 88 87 220 6 46 223 328 56 110 52 3 84 76 71 59 105 92 57 20 1 2 359 345 340 338 337 334 327 330 335 335 334 329 322 322 330 332 320 302 300 265 291 329
116 110 75 115 211 300 323 57 92 103 318 62 93 74 57 26 132 103 31 15 16 352 338 334 340 340 337 333 332 335 334 331 330 321 320 326 329 329 317 298 260 278 338 307
46 88 109 80 137 211 228 126 96 54 261 92 96 74 45 60 100 253 341 347 347 332 334 338 339 338 335 333 335 335 331 326 322 321 325 327 334 330 335 338 347 323 310 311
47 351 145 173 215 281 249 171 106 117 234 142 127 116 105 178 239 297 326 332 332 331 334 332 332 339 333 329 331 326 324 321 319 320 323 328 328 328 331 335 329 319 312 314
163 153 193 190 209 275 225 134 155 187 154 163 141 185 185 296 284 309 319 330 328 332 330 331 333 327 326 332 331 329 322 318 318 321 322 326 327 331 333 330 322 316 320 323
168 184 181 182 212 225 189 221 202 214 250 174 151 90 299 230 289 322 330 329 338 334 330 330 323 325 333 322 329 322 320 319 321 324 324 325 332 330 335 324 321 322 323 323
265 192 193 114 240 234 240 179 194 195 183 172 210 146 193 273 316 328 336 337 335 335 331 326 333 333 327 325 320 317 319 319 320 328 321 322 322 325 318 312 316 319 318 326
217 341 236 253 265 92 126 178 164 150 159 196 154 172 184 293 327 334 336 330 330 324 325 331 330 325 326 316 314 317 318 316 317 318 320 312 307 313 315 318 314 314 321 326
219 198 172 238 237 212 149 154 154 159 167 178 151 179 232 317 326 322 324 323 316 316 319 321 318 317 315 310 311 317 314 314 313 318 317 322 315 314 309 300 304 310 315 328